FW5647 Weather Reports


Display with metric or nautical units.
time (UTC)temp
F
wind
direction
speed
MPH
gust
MPH
rain 1hr
in
rain 24hr
in
rain mn
in
humidity
%
barometer
mb
20260508060037 43 250 0.0 1.0 0.00 0.00 0.00 81 1011.5
20260508054535 42 0 0.0 0.0 0.00 0.00 0.00 81 1011.4
20260508053058 42 0 0.0 1.0 0.00 0.00 0.00 81 1011.5
20260508051535 42 0 0.0 1.0 0.00 0.00 0.00 79 1011.5
20260508050039 43 0 0.0 1.0 0.00 0.00 0.00 78 1011.6
20260508044537 44 127 0.0 1.0 0.00 0.00 0.00 77 1011.4
20260508043036 44 0 0.0 0.0 0.00 0.00 0.00 75 1011.6
20260508041558 46 0 0.0 1.0 0.00 0.00 0.00 72 1011.6
20260508040043 47 0 0.0 4.0 0.00 0.00 0.00 71 1011.4
20260508034535 47 257 1.0 4.0 0.00 0.00 0.00 71 1011.5
20260508033035 47 190 0.0 3.0 0.00 0.00 0.00 71 1011.3
20260508031537 47 160 0.0 2.0 0.00 0.00 0.00 70 1011.5
20260508030038 47 0 0.0 1.0 0.00 0.00 0.00 70 1011.8
20260508024538 48 0 0.0 0.0 0.00 0.00 0.00 67 1011.8
20260508023035 48 0 0.0 3.0 0.00 0.00 0.00 66 1011.7
20260508021534 49 0 0.0 2.0 0.00 0.00 0.00 65 1011.6
20260508020040 50 239 1.0 12.0 0.00 0.00 0.00 61 1011.6
20260508014537 49 120 2.0 6.0 0.00 0.00 0.00 58 1011.6
20260508013038 48 237 1.0 2.0 0.00 0.00 0.00 60 1011.5
20260508011540 48 0 0.0 1.0 0.00 0.00 0.00 58 1011.1
20260508010034 50 0 0.0 0.0 0.00 0.00 0.00 56 1010.9
20260508004534 51 256 0.0 2.0 0.00 0.00 0.00 51 1011.0
20260508003036 51 265 2.0 5.0 0.00 0.00 0.00 50 1010.9
20260508001537 52 300 3.0 8.0 0.00 0.00 0.00 49 1011.0
20260508000036 52 248 2.0 7.0 0.00 0.00 0.00 49 1011.0
20260507234536 52 232 4.0 9.0 0.00 0.00 0.00 48 1011.0
20260507233056 53 259 3.0 10.0 0.00 0.00 0.00 49 1010.9
20260507231541 53 296 3.0 8.0 0.00 0.00 0.00 48 1010.9
20260507230043 54 238 5.0 12.0 0.00 0.00 0.00 46 1011.0
20260507224541 54 309 4.0 10.0 0.00 0.00 0.00 46 1011.2
20260507223043 54 288 6.0 13.0 0.00 0.00 0.00 44 1011.1
20260507221541 55 340 4.0 10.0 0.00 0.00 0.00 44 1011.1
20260507220041 54 294 4.0 14.0 0.00 0.00 0.00 46 1011.3
20260507214537 53 282 5.0 13.0 0.00 0.00 0.00 46 1011.2
20260507213040 53 325 5.0 16.0 0.00 0.00 0.00 47 1011.3
20260507211537 53 316 6.0 15.0 0.00 0.00 0.00 46 1011.2
20260507210045 53 269 7.0 18.0 0.00 0.00 0.00 45 1011.2
20260507204542 54 256 7.0 18.0 0.00 0.00 0.00 46 1011.3
20260507203042 54 264 7.0 19.0 0.00 0.00 0.00 46 1011.6
20260507201538 53 296 8.0 22.0 0.00 0.00 0.00 46 1011.5
20260507200038 53 305 10.0 20.0 0.00 0.00 0.00 44 1011.6
20260507194607 53 326 8.0 19.0 0.00 0.00 0.00 45 1011.6
20260507193038 52 253 9.0 16.0 0.00 0.00 0.00 45 1011.7
20260507191541 52 302 8.0 20.0 0.00 0.00 0.00 44 1011.7
20260507190049 52 258 5.0 15.0 0.00 0.00 0.00 48 1011.6
20260507184540 52 316 7.0 15.0 0.00 0.00 0.00 46 1011.6
20260507183044 52 309 7.0 14.0 0.00 0.00 0.00 47 1011.8
20260507181537 52 265 6.0 13.0 0.00 0.00 0.00 46 1012.0
20260507180039 53 292 9.0 14.0 0.00 0.00 0.00 47 1011.9
20260507174553 52 7 5.0 12.0 0.00 0.00 0.00 47 1012.3
20260507173054 51 264 8.0 21.0 0.00 0.00 0.00 48 1012.4
20260507171545 51 233 9.0 17.0 0.00 0.00 0.00 47 1012.6
20260507170039 51 278 7.0 13.0 0.00 0.00 0.00 48 1012.8
20260507164547 51 276 7.0 19.0 0.00 0.00 0.00 51 1012.8
20260507163033 51 274 7.0 14.0 0.00 0.00 0.00 52 1012.7
20260507161556 51 309 8.0 15.0 0.00 0.00 0.00 50 1012.8
20260507160041 50 249 9.0 15.0 0.00 0.00 0.00 50 1013.0
20260507154542 50 296 6.0 16.0 0.00 0.00 0.00 51 1013.0
20260507153040 51 335 7.0 12.0 0.00 0.00 0.00 52 1012.8
20260507151536 50 295 7.0 13.0 0.00 0.00 0.00 54 1012.8
20260507150035 50 262 8.0 17.0 0.00 0.00 0.00 56 1012.7
20260507144534 49 312 6.0 14.0 0.00 0.00 0.00 54 1012.7
20260507143043 50 294 5.0 11.0 0.00 0.00 0.00 55 1012.9
20260507141541 50 266 4.0 7.0 0.00 0.00 0.00 56 1012.8
20260507140039 50 287 2.0 6.0 0.00 0.00 0.00 56 1012.8
20260507134536 49 320 3.0 8.0 0.00 0.00 0.00 58 1012.9
20260507133043 49 304 3.0 7.0 0.00 0.00 0.00 57 1013.0
20260507131541 48 211 2.0 6.0 0.00 0.00 0.00 59 1013.2
20260507130039 46 238 3.0 7.0 0.00 0.00 0.00 62 1013.1
20260507124540 46 276 1.0 5.0 0.00 0.00 0.00 63 1013.1
20260507123040 45 343 2.0 4.0 0.00 0.00 0.00 63 1013.0
20260507121541 44 307 1.0 3.0 0.00 0.00 0.00 67 1013.0
20260507120042 43 277 2.0 4.0 0.00 0.00 0.00 71 1013.0
20260507114535 41 257 0.0 2.0 0.00 0.00 0.00 76 1012.8
20260507113047 39 274 0.0 1.0 0.00 0.00 0.00 80 1012.7
20260507111538 37 0 0.0 0.0 0.00 0.00 0.00 83 1012.7
20260507110038 35 0 0.0 1.0 0.00 0.00 0.00 86 1012.6
20260507104536 35 0 0.0 0.0 0.00 0.00 0.00 86 1012.3
20260507103033 35 0 0.0 0.0 0.00 0.00 0.00 83 1012.3
20260507101532 36 0 0.0 0.0 0.00 0.00 0.00 82 1012.2
20260507100037 36 0 0.0 0.0 0.00 0.00 0.00 80 1012.1
20260507094544 37 0 0.0 0.0 0.00 0.00 0.00 79 1012.1
20260507093037 38 0 0.0 0.0 0.00 0.00 0.00 79 1012.2
20260507091536 38 0 0.0 0.0 0.00 0.00 0.00 77 1012.4
20260507090036 40 0 0.0 0.0 0.00 0.00 0.00 77 1012.3
20260507084534 41 0 0.0 0.0 0.00 0.00 0.00 75 1012.4
20260507083034 42 0 0.0 1.0 0.00 0.00 0.00 73 1012.5
20260507081545 42 0 0.0 1.0 0.00 0.00 0.00 74 1012.5
20260507080038 42 0 0.0 1.0 0.00 0.00 0.00 73 1012.4
20260507074535 42 0 0.0 1.0 0.00 0.00 0.00 73 1012.5
20260507073035 43 0 0.0 1.0 0.00 0.00 0.00 72 1012.4
20260507071535 42 0 0.0 1.0 0.00 0.00 0.00 72 1012.5
20260507070040 42 0 0.0 1.0 0.00 0.00 0.00 72 1012.5
20260507064542 42 0 0.0 0.0 0.00 0.00 0.00 71 1012.8
20260507063042 42 0 0.0 1.0 0.00 0.00 0.00 73 1012.5
20260507061538 43 0 0.0 0.0 0.00 0.00 0.00 73 1012.7